Overview Statistics Trail Chart Weather Telemetry Raw packets
 

This is the latest recevied weather packets stored in our database for station/object OE6ATD-13. If no packets are shown the sender has not sent any weather packets the latest 10 day(s).

<< 27 28 29 30 31 32 33 >>
Time Temp. Humidity Pressure Rain* Wind** Luminosity Snow
1788289829 18.33° C 77% 1020.4 hPa 0 mm - 0 W/m² -
1788289225 18.89° C 76% 1020.3 hPa 0 mm - 0 W/m² -
1788288627 18.89° C 74% 1020.2 hPa 0 mm - 0 W/m² -
1788288023 19.44° C 72% 1020.1 hPa 0 mm - 0 W/m² -
1788287418 19.44° C 71% 1020 hPa 0 mm - 0 W/m² -
1788286830 20° C 69% 1019.9 hPa 0 mm - 0 W/m² -
1788286226 20.56° C 67% 1019.7 hPa 0 mm - 0 W/m² -
1788285621 21.11° C 65% 1019.6 hPa 0 mm - 0 W/m² -
1788285017 21.67° C 63% 1019.7 hPa 0 mm - 0 W/m² -
1788284428 22.78° C 57% 1019.6 hPa 0 mm - 0 W/m² -
1788283823 23.33° C 53% 1019.5 hPa 0 mm - 4 W/m² -
1788283219 24.44° C 50% 1019.5 hPa 0 mm - 9 W/m² -
1788282630 25.56° C 47% 1019.4 hPa 0 mm - 20 W/m² -
1788282041 26.67° C 43% 1019.3 hPa 0 mm - 25 W/m² -
1788281418 26.67° C 42% 1019.3 hPa 0 mm - 38 W/m² -
1788280829 27.22° C 39% 1019.4 hPa 0 mm - 47 W/m² -
1788280226 27.78° C 39% 1019.5 hPa 0 mm - 56 W/m² -
1788279622 27.78° C 39% 1019.5 hPa 0 mm - 67 W/m² -
1788279017 28.33° C 40% 1019.4 hPa 0 mm - 86 W/m² -
1788278428 28.33° C 40% 1019.6 hPa 0 mm - 102 W/m² -
1788277821 27.78° C 39% 1019.6 hPa 0 mm - 125 W/m² -
1788277216 28.33° C 39% 1019.7 hPa 0 mm - 156 W/m² -
1788276627 27.78° C 40% 1019.8 hPa 0 mm - 181 W/m² -
1788276026 28.33° C 38% 1019.7 hPa 0 mm - 179 W/m² -
1788275419 28.33° C 39% 1019.7 hPa 0 mm - 272 W/m² -

* Rain latest hour (hover to see other rain measurements)
** Current wind speed in m/s (hover to see current wind gust speed)